GW4508 Weather Reports


Display with metric or nautical units.
time (UTC)temp
F
wind
direction
speed
MPH
gust
MPH
rain 1hr
in
rain 24hr
in
rain mn
in
humidity
%
barometer
mb
20260510153042 72 312 0.0 5.0 0.00 0.11 0.00 86 1018.2
20260510151543 71 0 0.0 3.0 0.00 0.11 0.00 87 1018.1
20260510150041 71 0 0.0 2.0 0.00 0.11 0.00 87 1018.2
20260510144543 71 254 1.0 4.0 0.00 0.19 0.00 87 1018.1
20260510143040 70 0 0.0 3.0 0.00 0.19 0.00 87 1018.1
20260510141539 70 38 0.0 3.0 0.00 0.19 0.00 87 1018.1
20260510140037 69 38 0.0 3.0 0.00 0.19 0.00 86 1018.0
20260510134539 68 38 0.0 4.0 0.00 0.58 0.00 86 1017.8
20260510133059 68 0 0.0 1.0 0.00 0.58 0.00 85 1017.7
20260510131540 67 0 0.0 2.0 0.00 0.58 0.00 84 1017.7
20260510130041 67 0 0.0 2.0 0.00 0.58 0.00 84 1017.5
20260510124541 66 0 0.0 1.0 0.00 0.58 0.00 84 1017.5
20260510123054 66 0 0.0 1.0 0.00 0.58 0.00 84 1017.1
20260510121532 65 0 0.0 0.0 0.00 0.58 0.00 85 1017.0
20260510120040 65 0 0.0 0.0 0.00 0.58 0.00 85 1016.9
20260510114540 64 0 0.0 1.0 0.00 0.58 0.00 85 1016.6
20260510113044 63 0 0.0 1.0 0.00 0.58 0.00 84 1016.1
20260510111540 63 0 0.0 0.0 0.00 0.58 0.00 84 1015.8
20260510110042 63 0 0.0 0.0 0.00 0.58 0.00 84 1015.5
20260510104540 64 0 0.0 0.0 0.00 0.58 0.00 84 1015.3
20260510103042 64 0 0.0 0.0 0.00 0.58 0.00 84 1015.3
20260510101540 65 0 0.0 0.0 0.00 0.58 0.00 84 1015.3
20260510100039 65 0 0.0 0.0 0.00 0.58 0.00 84 1015.2
20260510094533 65 0 0.0 0.0 0.00 0.58 0.00 84 1015.0
20260510093039 65 0 0.0 0.0 0.00 0.58 0.00 84 1014.9
20260510091539 65 0 0.0 0.0 0.00 0.58 0.00 84 1015.1
20260510090100 65 0 0.0 0.0 0.00 0.58 0.00 84 1015.0
20260510084540 65 0 0.0 0.0 0.00 0.58 0.00 84 1014.7
20260510083041 65 0 0.0 0.0 0.00 0.58 0.00 84 1014.6
20260510081545 65 0 0.0 2.0 0.00 0.58 0.00 84 1014.5
20260510080040 64 0 0.0 1.0 0.00 0.58 0.00 84 1014.2
20260510074542 65 0 0.0 2.0 0.00 0.60 0.00 84 1013.8
20260510073054 65 223 0.0 2.0 0.00 0.60 0.00 84 1013.5
20260510071535 65 0 0.0 2.0 0.00 0.60 0.00 84 1013.6
20260510070045 65 0 0.0 2.0 0.00 0.60 0.00 84 1013.7
20260510064549 65 0 0.0 0.0 0.00 0.60 0.00 84 1013.8
20260510063046 65 0 0.0 0.0 0.00 0.60 0.00 84 1013.6
20260510061540 65 0 0.0 1.0 0.00 0.60 0.00 84 1014.0
20260510060033 65 0 0.0 1.0 0.00 0.60 0.00 84 1014.3
20260510054540 65 0 0.0 1.0 0.00 0.60 0.00 84 1014.4
20260510053041 64 0 0.0 0.0 0.00 0.60 0.00 84 1014.2
20260510051543 65 0 0.0 0.0 0.00 0.60 0.00 84 1014.2
20260510050037 65 0 0.0 2.0 0.00 0.60 0.00 84 1014.2
20260510044548 65 174 0.0 3.0 0.00 0.60 0.60 84 1014.6
20260510043041 65 174 1.0 3.0 0.00 0.60 0.60 84 1014.8
20260510041541 65 0 0.0 0.0 0.00 0.60 0.60 84 1014.6
20260510040039 65 0 0.0 0.0 0.00 0.60 0.60 84 1014.6
20260510034538 65 0 0.0 0.0 0.00 0.60 0.60 85 1015.0
20260510033045 65 0 0.0 0.0 0.00 0.60 0.60 85 1015.0
20260510031550 65 0 0.0 0.0 0.00 0.60 0.60 84 1014.8
20260510030039 65 0 0.0 3.0 0.00 0.60 0.60 84 1014.8
20260510024538 66 0 0.0 4.0 0.00 0.60 0.60 84 1014.8
20260510023038 66 174 2.0 5.0 0.00 0.60 0.60 84 1015.1
20260510021541 66 170 1.0 4.0 0.00 0.60 0.60 85 1014.6
20260510020040 66 0 0.0 3.0 0.00 0.60 0.60 85 1014.3
20260510014537 66 170 2.0 5.0 0.00 0.60 0.60 85 1014.4
20260510013041 67 170 2.0 5.0 0.00 0.60 0.60 85 1014.5
20260510011539 67 169 2.0 5.0 0.00 0.60 0.60 85 1014.2
20260510010039 67 174 0.0 3.0 0.00 0.60 0.60 85 1013.9
20260510004540 67 0 0.0 2.0 0.00 0.60 0.60 86 1013.9
20260510003046 67 0 1.0 5.0 0.00 0.60 0.60 86 1014.0
20260510001547 68 0 0.0 4.0 0.00 0.60 0.60 86 1013.9
20260510000039 68 0 0.0 4.0 0.00 0.60 0.60 86 1013.6
20260509234539 68 171 1.0 4.0 0.00 0.60 0.60 86 1013.6
20260509233037 68 171 2.0 5.0 0.00 0.60 0.60 87 1013.6
20260509231542 68 171 1.0 5.0 0.00 0.60 0.60 87 1013.5
20260509230040 68 186 1.0 3.0 0.00 0.60 0.60 87 1013.3
20260509224549 69 186 2.0 4.0 0.00 0.71 0.60 87 1013.2
20260509223042 69 187 2.0 4.0 0.00 0.71 0.60 87 1012.8
20260509221554 69 194 1.0 4.0 0.00 0.71 0.60 87 1012.8
20260509220040 69 194 1.0 4.0 0.00 0.71 0.60 87 1013.0
20260509214539 69 193 1.0 4.0 0.00 0.91 0.60 87 1013.0
20260509213044 69 195 1.0 4.0 0.00 0.91 0.60 87 1012.9
20260509211545 69 121 0.0 3.0 0.00 0.91 0.60 87 1012.9
20260509210041 69 0 1.0 3.0 0.00 0.91 0.60 87 1012.9
20260509204537 69 0 0.0 2.0 0.00 0.94 0.60 87 1012.5
20260509203037 68 0 0.0 5.0 0.00 0.94 0.60 87 1012.5
20260509201544 68 0 0.0 3.0 0.00 0.94 0.60 87 1012.3
20260509200050 68 42 3.0 5.0 0.00 0.94 0.60 87 1011.9
20260509194540 67 0 1.0 3.0 0.00 1.02 0.60 86 1012.1
20260509193042 67 49 3.0 4.0 0.00 1.02 0.60 86 1011.9
20260509191539 67 128 2.0 6.0 0.00 1.02 0.60 85 1012.0
20260509190035 67 0 0.0 4.0 0.01 1.02 0.60 84 1012.2
20260509184534 67 41 1.0 4.0 0.01 1.04 0.60 84 1012.0
20260509183040 66 329 1.0 10.0 0.01 1.04 0.60 84 1012.4
20260509181540 66 119 7.0 11.0 0.01 1.04 0.60 84 1011.7
20260509180042 65 213 2.0 7.0 0.00 1.04 0.58 84 1013.1
20260509174538 65 250 2.0 6.0 0.00 1.04 0.58 84 1013.6
20260509173042 65 306 3.0 15.0 0.01 1.04 0.58 85 1013.4
20260509171546 65 134 8.0 16.0 0.03 1.04 0.58 84 1012.8
20260509170041 65 160 8.0 13.0 0.04 1.04 0.58 84 1013.6
20260509164548 65 161 5.0 12.0 0.04 1.03 0.58 84 1014.2
20260509163038 65 140 3.0 9.0 0.05 1.03 0.58 85 1014.5
20260509161536 64 171 4.0 11.0 0.03 1.01 0.56 85 1014.7
20260509160042 64 155 8.0 15.0 0.06 1.00 0.55 85 1014.4
20260509154541 64 182 6.0 11.0 0.07 0.99 0.54 84 1014.0